Weather observations for the past three days for
Cleveland, Burke Lakefront Airport
Imperial (Metric)
Date Time (edt) Wind (mph) Vis. (mi.) Weather Sky Cond. Temperature (ºF) Relative Humidity Wind Chill (°F) Heat Index (°F) Pressure Precipitation (in)
Air Dwpt 6 hour altimeter (in) sea level (mb) 1 hr 3 hr 6 hr
Max. Min.
13 15:53 SW 14 G 29 10.00 Partly Cloudy SCT060 90 60.1 37% 90 29.88 1011.3
13 14:53 W 16 G 25 10.00 Light Rain FEW065 91 62.1 38% 92 29.89 1011.6
13 13:53 SW 17 G 25 10.00 Fair CLR 90 60.1 90 75 37% 90 29.88 1011.4
13 12:53 S 17 G 25 10.00 Fair CLR 88 57.9 36% 87 29.9 1011.9
13 11:53 S 10 G 23 10.00 Partly Cloudy SCT070 84.9 57 39% 84 29.93 1012.9
13 10:53 SW 8 G 20 10.00 Partly Cloudy SCT070 82.9 55.9 40% 82 29.94 1013.4
13 09:53 S 9 10.00 Partly Cloudy SCT055 79 54 42% 79 29.95 1013.6
13 08:53 S 12 G 22 10.00 Mostly Cloudy BKN055 BKN070 77 52 42% 78 29.94 1013.3
13 07:53 S 14 G 26 10.00 Mostly Cloudy FEW080 BKN100 75 52 75.9 73 45% 78 29.93 1013.0
13 06:53 S 15 10.00 Mostly Cloudy BKN070 73.9 52 46% 29.93 1013.0
13 05:53 S 17 G 28 10.00 Partly Cloudy SCT080 73.9 52 46% 29.92 1012.9
13 04:53 S 14 G 22 10.00 Fair CLR 73 52 48% 29.92 1012.8
13 03:53 S 13 10.00 Fair CLR 73.9 52 46% 29.93 1013.0
13 02:53 S 13 10.00 Fair CLR 73.9 52 46% 29.93 1013.1
13 01:53 S 12 10.00 Fair CLR 73.9 51.1 82.9 73.9 45% 29.93 1013.0
13 00:53 S 13 G 21 10.00 Fair CLR 73.9 52 46% 29.93 1013.1
12 23:53 S 13 10.00 Fair CLR 75 52 45% 78 29.93 1013.1
12 22:53 S 10 10.00 A Few Clouds FEW085 78.1 51.1 39% 79 29.93 1013.2
12 21:53 S 10 10.00 Fair CLR 80.1 50 35% 80 29.94 1013.3
12 20:53 SW 10 10.00 Fair CLR 80.1 48.9 34% 79 29.93 1013.1
12 19:53 S 10 10.00 Fair CLR 81 51.1 82 77 35% 80 29.94 1013.5
12 18:53 N 6 10.00 Fair CLR 80.1 57.9 47% 81 29.94 1013.4
12 17:53 N 6 10.00 Fair CLR 80.1 52 38% 80 29.94 1013.5
12 16:53 NE 7 10.00 Fair CLR 79 54 42% 79 29.95 1014.0
12 15:53 NE 7 10.00 Fair CLR 80.1 55 42% 80 29.97 1014.6
12 14:53 N 6 10.00 Fair CLR 79 54 42% 79 29.99 1015.1
12 13:53 N 6 10.00 Fair CLR 78.1 55 78.1 64.9 45% 79 30 1015.7
12 12:53 NW 6 10.00 Fair CLR 75.9 57 52% 78 30.01 1015.9
12 11:53 NW 5 10.00 Fair CLR 75 55 50% 78 30.01 1016.0
12 10:53 NW 6 10.00 Fair CLR 73 55 53% 30.02 1016.3
12 09:53 W 7 10.00 Fair CLR 73.9 53.1 48% 30.02 1016.3
12 07:53 S 10 10.00 Fair CLR 64.9 50 66 60.1 59% 30 1015.8
12 06:53 SE 13 10.00 Fair CLR 62.1 48.9 62% 30 1015.5
12 05:53 SE 12 10.00 Fair CLR 61 48 63% 30 1015.5
12 04:53 SE 8 10.00 Fair CLR 61 48 63% 29.99 1015.3
12 03:53 SE 8 10.00 Fair CLR 61 46.9 60% 30 1015.7
12 02:53 SE 12 10.00 Fair CLR 61 46.9 60% 30 1015.7
12 01:53 S 10 10.00 Fair CLR 62.1 46 68 62.1 56% 30 1015.7
12 00:53 SE 8 10.00 Fair CLR 63 45 52% 30 1015.7
11 23:53 SE 8 10.00 Fair CLR 63 44.1 50% 30 1015.6
11 22:53 SE 6 10.00 Fair CLR 64 43 46% 30.01 1015.9
11 21:53 SE 6 10.00 Fair CLR 64.9 41 42% 30 1015.8
11 20:53 SE 3 10.00 Fair CLR 66 39 37% 30 1015.5
11 19:53 NE 6 10.00 Fair CLR 68 41 69.1 64.9 38% 30 1015.7
11 18:53 NE 7 10.00 Fair CLR 68 45 44% 30 1015.8
11 17:53 N 8 10.00 A Few Clouds FEW040 69.1 43 39% 30 1015.8
11 16:53 N 8 10.00 Fair CLR 68 46.9 47% 30 1015.8
11 15:53 N 8 10.00 A Few Clouds FEW040 66.9 48 51% 30.01 1016.1
11 14:53 NW 7 10.00 Fair CLR 66.9 46.9 49% 30.01 1016.3
11 13:53 NW 8 10.00 Fair CLR 64.9 48 66 57.9 54% 30.02 1016.6
11 12:53 N 6 10.00 Fair CLR 64.9 48.9 56% 30.02 1016.6
11 11:53 N 9 10.00 Fair CLR 66 50 56% 30.04 1016.9
11 10:53 N 8 10.00 A Few Clouds FEW025 64.9 51.1 61% 30.03 1016.6
11 09:53 N 9 10.00 Mostly Cloudy SCT030 BKN037 64 50 60% 30.02 1016.5
11 08:53 W 3 10.00 Mostly Cloudy FEW026 FEW033 BKN042 62.1 48.9 62% 30.01 1016.2
11 07:53 S 3 10.00 Mostly Cloudy BKN025 57.9 48.9 60.1 55 72% 30 1015.7
11 06:53 S 6 10.00 Mostly Cloudy BKN025 55 48 77% 29.98 1015.2
11 05:53 SE 6 8.00 Mostly Cloudy BKN025 55 48 77% 29.97 1014.8
11 04:53 N 5 10.00 Fair CLR 59 50 72% 29.96 1014.4
11 03:53 N 6 10.00 Fair CLR 59 48.9 69% 29.95 1014.1
11 02:53 N 13 10.00 Fair CLR 59 48 67% 29.94 1013.7
11 01:53 N 10 10.00 Fair CLR 60.1 48 62.1 60.1 65% 29.93 1013.3
11 00:53 NW 9 10.00 Fair CLR 61 48.9 65% 29.93 1013.5
10 23:53 NW 6 10.00 Mostly Cloudy BKN070 61 48 63% 29.93 1013.4
10 22:53 NW 7 10.00 Mostly Cloudy BKN070 61 48 63% 29.92 1013.1
10 21:53 Vrbl 3 10.00 Overcast OVC070 61 48 63% 29.9 1012.4
10 20:53 N 5 10.00 Overcast OVC070 61 46.9 60% 29.89 1012.0
10 19:53 N 6 10.00 Fair CLR 62.1 46.9 63 60.1 58% 29.88 1011.7
10 18:53 NW 7 10.00 Overcast OVC080 63 46.9 56% 29.87 1011.4
10 17:53 NW 9 10.00 Mostly Cloudy BKN085 61 46.9 60% 29.88 1011.6
10 16:53 NW 9 10.00 Overcast SCT030 OVC036 61 46.9 60% 29.88 1011.6
Date Time (edt) Wind (mph) Vis. (mi.) Weather Sky Cond. Air Dwpt Max. Min. Relative Humidity Wind Chill (°F) Heat Index (°F) altimeter (in) sea level (mb) 1 hr 3 hr 6 hr
6 hour
Temperature (ºF) Pressure Precipitation (in)